Volver al catálogo

STARLINK-35190

ActivoComunicacionesSSO
NORAD 65663·PAYLOAD·🇺🇸 United States

Lanzado Sep 19, 2025 desde Vandenberg Space Force Base

Loading…

Próximos Pases (próximas 24 horas)

TLE

ActualizadoSource: CelesTrak SupGP

Época: Sep 14, 2026, 21:24 UTC

1 65663C 25211M   26257.89215278  .00014151  00000+0  43972-3 0  2577
2 65663  97.2830 298.2420 0001266  86.4836  14.6207 15.33399350    16

Sigue STARLINK-35190 en tiempo real con AllMySat

Download on the App Store